Tracking 20232 objects as of 22-Jan-2020
HD Live streaming from Space Station
objects crossing your sky now

TITAN 3C TRANSTAGE DEB

Track TITAN 3C TRANSTAGE DEB now!
10-day predictions


NORAD ID: 21692
Int'l Code: 1965-108AF
Perigee: 653.2 km
Apogee: 23,112.4 km
Inclination: 28.3 °
Period: 409.1 minutes
Semi major axis: 18253 km
RCS: 0.133 m2 (medium)
Launch date: December 21, 1965
Source: United States (US)
Launch site: AIR FORCE EASTERN TEST RANGE (AFETR)

Note: This is SATELLITE DEBRIS
aabbcc
Your satellite tracking list
Your tracking list is empty




NASA's NSSDC Master Catalog

Two Line Element Set (TLE):
1 21692U 65108AF  20021.42715155  .00000024  00000-0  14763-2 0  9994
2 21692  28.2667 116.4670 6151944  35.2932   7.2488  3.52024796323760
Source of the keplerian elements: AFSPC